Regional Weather Roundup
Issued by NWS

Home | Current Version | Previous Version | Graphics & Text | Print | Product List | Glossary On
Versions: 1 2 3 4 5 6 7 8 9 10 11 12 13 14 15 16 17 18 19 20 21 22 23 24 25 26 27 28 29 30 31 32 33 34 35 36 37 38 39 40 41 42 43 44 45 46 47 48 49 50
000
ASUS43 KMPX 231310
RWRMN
WEATHER ROUNDUP FOR MINNESOTA
NATIONAL WEATHER SERVICE TWIN CITIES/CHANHASSEN MN
800 AM CDT WED AUG 23 2017


NOTE: "FAIR" INDICATES FEW OR NO CLOUDS BELOW 12,000 FEET WITH NO
SIGNIFICANT WEATHER AND/OR OBSTRUCTIONS TO VISIBILITY. N/A MEANS
CURRENT SKY AND/OR WEATHER CONDITIONS ARE NOT AVAILABLE.

MNZ060>063-068>070-231400-
   Twin Cities Metro

CITY           SKY/WX    TMP DP  RH WIND       PRES   REMARKS
TWIN CITIES    SUNNY     59  51  75 NW6       30.11R
ST PAUL        SUNNY     59  54  83 N5        30.11R
CRYSTAL        SUNNY     59  49  69 NW7       30.10R
BLAINE         SUNNY     57  54  88 NW3       30.11R
LAKEVILLE      SUNNY     55  54  94 CALM      30.11S
EDEN PRAIRIE   SUNNY     57  53  86 CALM      30.11R
SOUTH ST PAUL  SUNNY     59  51  76 NW5       30.11R
LAKE ELMO      FAIR      55  52  88 CALM      30.12R
$$
MNZ001>005-007-008-013>017-022>024-027-028-231400-
   Northwest Minnesota

CITY           SKY/WX    TMP DP  RH WIND       PRES   REMARKS
BEMIDJI        MOSUNNY   48  48 100 W3        30.12S
HALLOCK        CLOUDY    52  48  87 CALM      30.11R
ROSEAU         HAZE      50  45  81 CALM      30.12S VSB 1/2
WARROAD        SUNNY     48  45  87 W3        30.12R
THIEF RVR FALL CLOUDY    50  49  96 E3        30.13R
CROOKSTON      CLOUDY    50  48  93 CALM      30.11F
FOSSTON        CLOUDY    46  46 100 CALM      30.13S
DETROIT LAKES  SUNNY     54  50  87 CALM      30.14R
MOORHEAD       SUNNY     50  46  87 CALM      30.13S
PARK RAPIDS    SUNNY     51  49  92 CALM      30.12R
MAHNOMEN       PTSUNNY   48  46  92 CALM      30.13S
$$
MNZ006-009>011-018-025>026-231400-
   North Central Minnesota

CITY           SKY/WX    TMP DP  RH WIND       PRES   REMARKS
BAUDETTE       SUNNY     51  50  96 CALM      30.11R
FLAG ISLAND    MOSUNNY   57  54  88 CALM      30.09R
INTL FALLS     SUNNY     53  50  89 N3        30.10R
WASKISH        SUNNY     48  48 100 CALM      30.12R
BIG FORK       MOSUNNY   43  43 100 CALM      30.11R
LONGVILLE      MOSUNNY   52  52 100 CALM      30.11R
CRANE LAKE     MOSUNNY   52  48  87 CALM      30.11R
ORR            MOSUNNY   52  48  87 CALM      30.07R
COOK           CLOUDY    52  48  87 CALM      30.10R
WALKER         FAIR      50  49  96 W3        30.12R
$$
MNZ012-019>021-037-231400-
   Northeast Minnesota

CITY           SKY/WX    TMP DP  RH WIND       PRES   REMARKS
DULUTH         MOSUNNY   52  51  97 NW10      30.08R
ELY            PTSUNNY   52  52 100 CALM      30.08R
HIBBING        PTSUNNY   48  47  96 CALM      30.09R
EVELETH        CLOUDY    53  47  82 NW5       30.10R
DULUTH HARBOR  PTSUNNY   57  54  88 NW3       30.08S
TWO HARBORS    PTSUNNY   57  54  88 N3        30.05R
GRAND MARAIS     N/A     55  48  77 SW5       30.03R
G MARAIS ARPRT SUNNY     48  39  71 NW10      30.04R
$$
MNZ029>031-032-039>041-046>048-054>057-064-231400-
   West Central Minnesota

CITY           SKY/WX    TMP DP  RH WIND       PRES   REMARKS
FERGUS FALLS   SUNNY     54  54 100 CALM      30.13R
WHEATON        SUNNY     52  48  87 CALM      30.14S
MORRIS         SUNNY     54  48  82 CALM      30.12S
ALEXANDRIA     SUNNY     57  52  83 W3        30.13S
ELBOW LAKE     FAIR      52  51  99 CALM      30.13S
WADENA         SUNNY     50  50 100 CALM      30.12S
GLENWOOD       SUNNY     55  54  94 CALM      30.13S
APPLETON       SUNNY     54  48  82 CALM      30.12S
BENSON         SUNNY     52  48  87 CALM      30.14S
ORTONVILLE     PTSUNNY   57  52  82 MISG      30.12S
MADISON        CLOUDY    57  57 100 CALM      30.12S
WILLMAR        FAIR      52  52 100 CALM      30.14S
$$
MNZ033>034-036-042>043-049>051-058-059-231400-
   Central Minnesota

CITY           SKY/WX    TMP DP  RH WIND       PRES   REMARKS
ST CLOUD       SUNNY     54  51  90 N3        30.12R
SAUK CENTRE    FAIR      53  50  91 CALM      30.13R
PAYNESVILLE    SUNNY     52  51  97 W3        30.13R
AITKIN         MOSUNNY   50  48  93 CALM      30.10R
PINE RIVER     SUNNY     48  46  93 MISG      30.14S
BRAINERD       SUNNY     54  52  93 CALM      30.12R
STAPLES        SUNNY     50  48  93 CALM      30.12S
LONG PRAIRIE   FAIR      52  52 100 CALM      30.13S
LITTLE FALLS   SUNNY     50  48  93 CALM      30.12R
LITCHFIELD     SUNNY     61  54  77 W5        30.13R
BUFFALO        SUNNY     57  50  77 CALM      30.13R
MAPLE LAKE     SUNNY     56  53  88 CALM      30.13R
HUTCHINSON     CLOUDY    54  52  94 CALM      30.13S
$$
MNZ037-044-045-052-053-231400-
   East Central Minnesota

CITY           SKY/WX    TMP DP  RH WIND       PRES   REMARKS
PRINCETON      MOSUNNY   54  52  94 CALM      30.11S
MORA           SUNNY     50  50 100 CALM      30.13R
CAMBRIDGE      MOSUNNY   55  50  82 CALM      30.11R
RUSH CITY      MOSUNNY   53  51  94 CALM      30.11R
MOOSE LAKE     SUNNY     52  50  93 CALM      30.08R
HINCKLEY       FAIR      54  52  94 NW5       30.11R
CLOQUET        SUNNY     52  48  87 NW6       30.09R
MCGREGOR       SUNNY     52  50  93 CALM      30.11R
$$
MNZ071>073-080-081-089-090-097-098-231400-
   Southwest Minnesota

CITY           SKY/WX    TMP DP  RH WIND       PRES   REMARKS
MONTEVIDEO     SUNNY     57  54  88 CALM      30.13S
GRANITE FALLS  SUNNY     54  52  93 SW3       30.15R
CANBY          CLOUDY    59  50  73 CALM      30.14S
MARSHALL       MOSUNNY   59  54  82 W3        30.14S HAZE
REDWOOD FALLS  SUNNY     55  48  77 NW3       30.13R
OLIVIA         SUNNY     54  50  87 NW3       30.12S
PIPESTONE      SUNNY     55  52  88 CALM      30.15S
WINDOM         SUNNY     54  48  82 CALM      30.15R
WORTHINGTON    SUNNY     56  51  84 SW3       30.16S
JACKSON        SUNNY     54  50  87 CALM      30.15S
TRACY          SUNNY     58  52  79 SW7       30.15R
SLAYTON        SUNNY     52  47  83 CALM      30.16S
$$
MNZ065>067-074>077-082>085-091>093-231400-
   South Central Minnesota

CITY           SKY/WX    TMP DP  RH WIND       PRES   REMARKS
MANKATO        SUNNY     54  52  93 W3        30.13S
NEW ULM        SUNNY     54  50  87 W3        30.13S
ST JAMES       SUNNY     55  50  82 CALM      30.15R
FAIRMONT       SUNNY     57  52  83 W5        30.14S
GLENCOE        SUNNY     55  54  94 CALM      30.12R
FARIBAULT      SUNNY     55  52  88 CALM      30.12S
OWATONNA       SUNNY     54  52  94 CALM      30.13R
WASECA         SUNNY     52  50  93 CALM      30.14S
ALBERT LEA     SUNNY     59  54  82 NW3       30.13R
$$
MNZ078>079-086>088-094>096-231400-
   Southeast Minnesota

CITY           SKY/WX    TMP DP  RH WIND       PRES   REMARKS
ROCHESTER      SUNNY     54  51  90 W7        30.13R
RED WING       SUNNY     55  52  88 W3        30.09S
STANTON        SUNNY     55  51  87 CALM      30.11R
DODGE CENTER   SUNNY     57  50  77 W7        30.12R
WINONA         MOSUNNY   57  52  82 CALM      30.10R
AUSTIN         SUNNY     55  50  82 CALM      30.12R
PRESTON        SUNNY     54  49  83 NW9       30.12R
$$
ABBREVIATIONS USED IN REMARKS
   TC - TEMPERATURES IN CELSIUS
  WCI - WIND CHILL INDEX
   HX - HEAT INDEX
  VSB - VISIBILITY
$$




USA.gov is the U.S. government's official web portal to all federal, state and local government web resources and services.